Torna al catalogo

YAOGAN-34

AttivoMilitareLEO
NORAD 48340·PAYLOAD·🇨🇳 China

Lanciato Apr 30, 2021 da Jiuquan Satellite Launch Center

Loading…

Prossimi Passaggi (prossime 24 ore)

TLE

AggiornatoSource: Space-Track

Epoca: Sep 14, 2026, 14:42 UTC

1 48340U 21037A   26257.61255282  .00000036  00000-0  21052-3 0  9997
2 48340  63.4018 276.6954 0048349 353.2134   6.8232 13.45437744264039

Traccia YAOGAN-34 in tempo reale con AllMySat

Download on the App Store